Location: ????????
(55.6189°N, 38.3031°E)
Time: 06:29:13
(UTC+00:00)

Cosmos 1707 Rocket - Pass Details

Date: 15 November 2019
Orbit: 606 x 631 km, 82.5° (Epoch: 06 December)

Event Time Altitude Azimuth Distance (km) Brightness Sun altitude
Rises 03:49:39 0° 350° (N) 2,931 6.7 -9.9°
Reaches altitude 10° 03:51:57 10° 354° (N) 2,022 6.0 -9.5°
Maximum altitude 03:56:21 56° 73° (ENE) 759 4.4 -9.0°
Drops below altitude 10° 04:00:45 10° 152° (SSE) 2,012 7.0 -8.4°
Sets 04:03:01 0° 157° (SSE) 2,915 7.7 -8.1°
